AirNav   Air Wisconsin pilot careers
 
 1124 users online  

U08 Perkins Field Airport
Overton, Nevada, USA

GOING TO OVERTON?


FAA INFORMATION EFFECTIVE 19 JULY 2018

Location

FAA Identifier: U08
Lat/Long: 36-34-05.2000N / 114-26-36.0000W
36-34.086667N / 114-26.600000W
36.5681111 / -114.4433333
(estimated)
Elevation: 1365.9 ft. / 416.3 m (surveyed)
Variation: 14E (1985)
From city: 2 miles N of OVERTON, NV
Time zone: UTC -7 (UTC -8 during Standard Time)
Zip code: 89021

Airport Operations

Airport use: Open to the public
Activation date: 06/1948
Control tower: no
ARTCC: LOS ANGELES CENTER
FSS: RENO FLIGHT SERVICE STATION
NOTAMs facility: RNO (NOTAM-D service available)
Attendance: THUR-MON DAYLIGHT HOURS
TUE & WED SVC AVBL ON CALL (702) 397-8457.
Pattern altitude: 2165.9 ft. MSL
Wind indicator: lighted
Segmented circle: yes
Lights: ACTVT MIRLS RY 13/31 - CTAF.
Beacon: white-green (lighted land airport)
Operates sunset to sunrise.

Airport Communications

CTAF/UNICOM: 122.8

Nearby radio navigation aids

VOR radial/distance  VOR name  Freq  Var
MMMr197/14.5MORMON MESA VORTAC114.3016E
BLDr016/39.9BOULDER CITY VORTAC116.7015E

Airport Services

Fuel available: 100
Oil available: ONLY ENOUGH OIL FOR ENG NEED, NO EXTRA SALES AVAILABLE.
Parking: tiedowns
Airframe service: NONE
Powerplant service: NONE
Bottled oxygen: NONE
Bulk oxygen: NONE

Runway Information

Runway 13/31

Dimensions: 4811 x 75 ft. / 1466 x 23 m
Surface: asphalt, in good condition
Weight bearing capacity: 
Single wheel: 30.0
Runway edge lights: medium intensity
Gradient: NW
RUNWAY 13  RUNWAY 31
Latitude: 36-34.431133N36-33.741918N
Longitude: 114-26.842670W114-26.356943W
Elevation: 1365.9 ft.1348.8 ft.
Gradient: 0.4%0.4% UP
Traffic pattern: leftright
Markings: nonprecision, in good conditionnonprecision, in good condition
Runway end identifier lights: nono
Touchdown point: yes, no lightsyes, no lights
Obstructions: 4 ft. fence, 380 ft. from runway, 45:1 slope to clear15 ft. road, 360 ft. from runway, 10:1 slope to clear

Airport Ownership and Management from official FAA records

Ownership: Publicly-owned
Owner: CLARK COUNTY
PO BOX 11005 AIRPORT STATION
LAS VEGAS, NV 89111
Phone 702-739-5211
Manager: KELLY BURNS
2730 AIRPORT DRIVE STE. 101
NORTH LAS VEGAS, NV 89032
Phone 702-261-3802
RESIDENT CARETAKER MIKE STIETZ 702-397-9617 AT AIRPORT.

Airport Operational Statistics

Aircraft based on the field: 12
Single engine airplanes: 10
Multi engine airplanes: 1
Ultralights: 1
    
Aircraft operations: avg 100/week *
62% local general aviation
38% transient general aviation
* for 12-month period ending 31 December 2015

Additional Remarks

ULTRALIGHT AND SKYDIVING ACTIVITY ONGOING ON OR NEAR THE ARPT.

Instrument Procedures

There are no published instrument procedures at U08.

Some nearby airports with instrument procedures:

KLSV - Nellis Air Force Base (35 nm SW)
KVGT - North Las Vegas Airport (42 nm SW)
KBVU - Boulder City Municipal Airport (42 nm SW)
KLAS - Mc Carran International Airport (45 nm SW)
KHND - Henderson Executive Airport (49 nm SW)
 
Loc | Ops | Rwys | IFR | FBO | Links
Com | Nav | Svcs | Stats | Notes


 
Area around U08 (Perkins Field Airport)
 
Road maps at: MapQuest Bing Google
 
Aerial photo
WARNING: Photo may not be current or correct
Aerial photo of U08 (Perkins Field Airport)
Photo courtesy of focalflight.com
Photo taken 09-Dec-2015
looking south.

Do you have a better or more recent aerial photo of Perkins Field Airport that you would like to share? If so, please send us your photo.

 
Sectional chart

 
Airport distance calculator
Flying to Perkins Field Airport? Find the distance to fly.

From to U08

Sunrise and sunset
Times for 20-Jul-2018
 Local
(UTC-7)
 Zulu
(UTC)
Morning civil twilight05:0612:06
Sunrise05:3612:36
Sunset19:5302:53
Evening civil twilight20:2203:22

Current date and time
Zulu (UTC)  20-Jul-2018 13:14:06
Local (UTC-7)  20-Jul-2018 06:14:06
 
METAR
KLSV 
35nm SW 
201258Z AUTO 04007KT 10SM CLR 25/20 A2993 RMK AO2 SLP108 T02500198
KBVU 
42nm SW 
201255Z AUTO 01003KT 10SM CLR 26/17 A2995 RMK AO2
KVGT 
43nm SW 
201253Z AUTO 08007KT 10SM CLR 27/18 A2994 RMK AO2 SLP123 T02720178 $
KLAS 
45nm SW 
201256Z 19005KT 10SM FEW200 BKN250 29/17 A2993 RMK AO2 SLP102 T02890167
KHND 
48nm SW 
201256Z 19007KT 10SM CLR 27/16 A2997 RMK AO2 SLP116 T02670161 $
TAF
KLSV 
35nm SW 
200705Z 2007/2113 05009KT 9999 FEW250 QNH2998INS BECMG 2011/2012 10009KT 9999 FEW250 QNH2995INS BECMG 2020/2021 18012G18KT 9999 SCT250 QNH2994INS TEMPO 2022/2103 VRB25G35KT VCTS SCT120CB BECMG 2102/2103 18012KT 9999 FEW100 SCT200 QNH2994INS TEMPO 2103/2106 VRB35G40KT VCTS SCT100CB BECMG 2105/2106 13009KT 9999 FEW250 QNH2997INS TX42/2023Z TN25/2012Z
KVGT 
43nm SW 
201139Z 2012/2112 VRB05KT P6SM BKN200 FM202100 15007KT P6SM SCT110 BKN200 FM210300 19007KT P6SM BKN200
NOTAMs
Click for the latest NOTAMs
NOTAMs are issued by the DoD/FAA and will open in a separate window not controlled by AirNav.

 

 
 

FBO, Fuel Providers, and Aircraft Ground Support

  
 Business Name 
 
 Contact 
 
 Services / Description 
 
Fuel Prices
 
Comments
  
Perkins Field 702-397-2716
[web site]
[email]
Airport management, Aviation fuel, Aircraft parking (ramp or tiedown)

More info about Perkins Field
100LL
SS $4.79 
 Updated 18-Jul-2018
 
   2 read write
SS=Self service
Update Fuel Prices
 

Would you like to see your business listed on this page?

 If your business provides an interesting product or service to pilots, flight crews, aircraft, or users of the Perkins Field Airport, you should consider listing it here.  To start the listing process, click on the button below
 
Add a business
 

Other Pages about Perkins Field Airport

Rhttp:/...
 
Update a link
 
Copyright © AirNav, LLC. All rights reserved. Privacy Policy  Contact